TimeMST,TemperatureF,Dew PointF,Humidity,Sea Level PressureIn,VisibilityMPH,Wind Direction,Wind SpeedMPH,Gust SpeedMPH,PrecipitationIn,Events,Conditions,WindDirDegrees,DateUTC
12:51 AM,66.0,21.0,18,29.88,10.0,East,4.6,-,N/A,,Clear,80,2013-04-20 07:51:00
1:51 AM,64.0,23.0,21,29.87,10.0,Calm,Calm,-,N/A,,Clear,0,2013-04-20 08:51:00
2:51 AM,62.1,23.0,22,29.87,10.0,ESE,4.6,-,N/A,,Clear,120,2013-04-20 09:51:00
3:51 AM,60.1,24.1,25,29.87,10.0,East,4.6,-,N/A,,Clear,90,2013-04-20 10:51:00
4:51 AM,59.0,23.0,25,29.87,10.0,East,6.9,-,N/A,,Clear,90,2013-04-20 11:51:00
5:51 AM,57.9,19.0,22,29.88,10.0,East,6.9,-,N/A,,Partly Cloudy,100,2013-04-20 12:51:00
6:51 AM,60.1,18.0,20,29.90,10.0,East,6.9,-,N/A,,Partly Cloudy,100,2013-04-20 13:51:00
7:51 AM,64.9,19.0,17,29.92,10.0,East,8.1,-,N/A,,Partly Cloudy,100,2013-04-20 14:51:00
8:51 AM,70.0,16.0,13,29.93,10.0,East,6.9,-,N/A,,Clear,90,2013-04-20 15:51:00
9:51 AM,73.0,12.9,10,29.92,10.0,East,5.8,-,N/A,,Partly Cloudy,90,2013-04-20 16:51:00
10:51 AM,77.0,10.9,8,29.91,10.0,Calm,Calm,-,N/A,,Partly Cloudy,0,2013-04-20 17:51:00
11:51 AM,82.0,12.0,7,29.88,10.0,Variable,4.6,-,N/A,,Partly Cloudy,0,2013-04-20 18:51:00
12:51 PM,84.9,10.9,6,29.86,10.0,West,10.4,-,N/A,,Partly Cloudy,270,2013-04-20 19:51:00
1:51 PM,86.0,10.9,6,29.84,10.0,WNW,9.2,-,N/A,,Partly Cloudy,290,2013-04-20 20:51:00
2:51 PM,88.0,15.1,7,29.81,10.0,Variable,4.6,-,N/A,,Partly Cloudy,0,2013-04-20 21:51:00
3:51 PM,90.0,15.1,6,29.79,10.0,West,12.7,23.0,N/A,,Partly Cloudy,260,2013-04-20 22:51:00
4:51 PM,90.0,12.0,6,29.78,10.0,WSW,12.7,24.2,N/A,,Partly Cloudy,250,2013-04-20 23:51:00
5:51 PM,89.1,12.9,6,29.77,10.0,WSW,17.3,25.3,N/A,,Partly Cloudy,240,2013-04-21 00:51:00
6:51 PM,87.1,14.0,7,29.78,10.0,WSW,11.5,-,N/A,,Partly Cloudy,250,2013-04-21 01:51:00
7:51 PM,82.9,16.0,8,29.81,10.0,SW,8.1,-,N/A,,Clear,230,2013-04-21 02:51:00
8:51 PM,80.1,19.0,10,29.83,10.0,SW,8.1,-,N/A,,Clear,230,2013-04-21 03:51:00
9:51 PM,79.0,17.1,10,29.85,10.0,WSW,6.9,-,N/A,,Clear,250,2013-04-21 04:51:00
10:51 PM,80.1,17.1,9,29.85,10.0,West,8.1,-,N/A,,Clear,270,2013-04-21 05:51:00
11:51 PM,77.0,21.0,12,29.86,10.0,NNW,6.9,-,N/A,,Clear,330,2013-04-21 06:51:00